Location: Asheville, NC
(35.6000°N, 82.5500°W)
Time: 17:31:15
(UTC-04:00)

STRAND 1 - Pass Details

Date: 12 January 2018
Orbit: 768 x 781 km, 98.5° (Epoch: 20 July)

Event Time Altitude Azimuth Distance (km) Brightness Sun altitude
Exits shadow 20:41:27 19° 221° (SW) 1,800 ? -36.8°
Drops below altitude 10° 20:42:51 10° 214° (SW) 2,320 ? -37.1°
Sets 20:45:14 0° 209° (SSW) 3,246 ? -37.6°
